UFO 4 (USA 108)

Last updated on Tue Sep 22 2026 00:03:10 GMT+0000 (Coordinated Universal Time)

1 23467U 95003A 26264.28949278 -.00000020 00000+0 00000+0 0 9999 2 23467 9.7042 12.7598 0002987 167.2317 96.7266 1.00270261115913
UTC large
Height (km)
Speed (km/s)
/
Latitude / Longitude
Inclination (degrees)
Orbital Period (minutes)
Azimuth
Elevation
Range (km)
Doppler Factor

Next 0 passes for location: London (51.5072 / 0.1276)

No passes found over London.
UFO 4 (USA 108)